Regional Weather Roundup
Issued by NWS

Home | Current Version | Previous Version | Text Only | Print | Product List | Glossary On
Versions: 1 2 3 4 5 6 7 8 9 10 11 12 13 14 15 16 17 18 19 20 21 22 23 24 25 26 27 28 29 30 31 32 33 34 35 36 37 38 39 40 41 42 43 44 45 46 47 48 49 50
000
ASUS45 KBOU 271210
RWRCO

WEATHER ROUNDUP FOR COLORADO
NATIONAL WEATHER SERVICE DENVER/BOULDER CO
500 AM MST THU FEB 27 2020

NOTE: "FAIR" INDICATES FEW OR NO CLOUDS BELOW 12000 FEET WITH NO
SIGNIFICANT WEATHER AND/OR OBSTRUCTIONS TO VISIBILITY.

COZ001>005-013-030-031-271300-
...NORTHWEST COLORADO...

CITY           SKY/WX    TMP DP  RH WIND       PRES   REMARKS
CRAIG          FAIR       3  -2  79 CALM      30.32R
HAYDEN         FAIR      14   7  73 CALM      30.32R
MEEKER         FAIR      11   4  73 CALM      30.32R
RANGELY        FAIR      10   6  84 E6        30.35R WCI   0
RABBIT EARS PA LGT SNOW  12  10  92 W13G22    30.17S VSB 1   WCI  -3
STEAMBOAT SPGS CLOUDY    18  12  77 S5        30.27S WCI  11
WALDEN         NOT AVBL
$$

COZ006>008-011-271300-
...WEST CENTRAL VALLEYS...

CITY           SKY/WX    TMP DP  RH WIND       PRES   REMARKS
GRAND JUNCTION FAIR      16   5  62 E6        30.38S WCI   7
MONTROSE       FAIR      19  10  68 SE5       30.40R WCI  12
EAGLE          CLOUDY    28  12  51 W16       30.31S WCI  16
RIFLE          FAIR      21  13  71 S6        30.37S WCI  13
DELTA          FAIR      21   8  55 E3        30.40R
NUCLA          FAIR      21   9  58 E7        30.40R WCI  13
$$

COZ017>023-064>068-271300-
...SOUTHWEST COLORADO...

CITY           SKY/WX    TMP DP  RH WIND       PRES   REMARKS
DURANGO        FAIR      17  11  77 CALM      30.30R
CORTEZ         FAIR      15  10  80 NE8       30.35R WCI   4
PAGOSA SPRINGS FAIR      13   6  74 CALM      30.29S
TELLURIDE      FAIR      21  10  63 W8        30.33S WCI  12
WOLF CREEK PAS FAIR      12   5  73 NW3       30.30R
$$

COZ009-010-012-014-032>034-037-058>063-271300-
...CENTRAL COLORADO...

CITY           SKY/WX    TMP DP  RH WIND       PRES   REMARKS
ASPEN          CLOUDY    20  12  71 SW5       30.29R WCI  13
BUENA VISTA    CLOUDY    29  13  51 NW20G31   30.19S WCI  16
COPPER MTN     CLOUDY    14   9  79 MISG      30.16R
BERTHOUD PASS  NOT AVBL
DAKOTA HILL    CLOUDY    12   9  85 MISG      29.93F
COTTONWOOD PAS FLURRIES  25  12  58 W8        30.19R WCI  16
GUNNISON       FAIR       7   2  80 CALM      30.32R
GRANBY         CLOUDY    21  15  80 SW3       30.22R
KREMMLING      MOCLDY    12   9  85 E8        30.26S WCI   1
LEADVILLE      LGT SNOW  16  10  77 NW13G21   30.21R WCI   2
MONARCH PASS   FOG        9   3  78 W37       30.26S VSB 1/2 WCI -16
SALIDA         FAIR      29  10  45 N6        30.29R WCI  23
SUNLIGHT       NOT AVBL
WILKERSON PASS FAIR      14   7  73 NW21G37   30.06F HAZE    WCI  -4
$$

COZ069>075-271300-
...SAN LUIS VALLEY/SANGRE DE CRISTO MOUNTAINS...

CITY           SKY/WX    TMP DP  RH WIND       PRES   REMARKS
ALAMOSA        FAIR      11   2  67 NW3       30.25R
DEL NORTE      FAIR      18   9  68 W8        30.26R WCI   7
LA VETA PASS   FAIR      16   5  62 W17G23    30.14R WCI   0
SAGUACHE       FAIR      25   9  50 NW9       30.25R WCI  15
$$

COZ035-036-038>040-271300-
...NORTHERN COLORADO FRONT RANGE...

CITY           SKY/WX    TMP DP  RH WIND       PRES   REMARKS
DENVER INTL AP MOCLDY    36  17  46 W14       30.12R
AURORA         PTCLDY    32  17  55 W7        30.14R WCI  25
FRONT RANGE AP NOT AVBL
ERIE MUNI ARPT FAIR      29  16  58 CALM      30.18S
BOULDER MUN AP FAIR      36  18  48 NW10G17   30.13R
CENTENNIAL     FAIR      29  14  53 CALM      30.13R
BROOMFIELD     FAIR      36  16  44 NW16G22   30.13R
FORT COLLINS   FAIR      34  15  46 N9        30.12S WCI  27
LONGMONT       FAIR      28  16  60 SW6       30.14S WCI  21
$$

COZ041-046-047-076>085-087-088-271300-
...PIKES PEAK/PALMER DIVIDE AND SOUTHERN FOOTHILLS...

CITY           SKY/WX    TMP DP  RH WIND       PRES   REMARKS
COLO. SPRINGS  FAIR      36  11  35 NW8G21    30.12S
A. F. ACADEMY  FAIR      34   8  33 W16G22    30.09R WCI  24
SCHRIEVER AFB  NOT AVBL
CHEYENNE MTN   FAIR      33   7  34 W5        30.07R WCI  28
ELLICOTT       FAIR      23  11  60 NW3       30.15R
FALCON         FAIR      29   9  43 NW6       30.13R WCI  23
FORT CARSON    FAIR      37   7  29 W14       30.11R
LIMON          CLOUDY    26  19  74 W9        30.12R WCI  17
MONUMENT HILL  FAIR      23   9  54 MISG      30.14R
CANON CITY     NOT AVBL
WALSENBURG     NOT AVBL
TRINIDAD       FAIR      21  11  65 CALM      30.15R
$$

COZ042>045-048>051-090-091-271300-
...NORTHEAST COLORADO...

CITY           SKY/WX    TMP DP  RH WIND       PRES   REMARKS
GREELEY ARPT   FAIR      24  17  74 SW7       30.14R WCI  16
AKRON          CLOUDY    35  21  56 NW18G26   30.11R WCI  24
BURLINGTON     CLOUDY    33  21  61 NW13G22   30.12R WCI  24
WRAY           CLOUDY    34  23  64 W9        30.10S WCI  26
YUMA           NOT AVBL
STERLING       CLOUDY    37  23  56 NW17      30.10R
HOLYOKE        FAIR      36  23  60 W8        30.09R
FORT MORGAN    CLOUDY    32  15  49 SE7       30.13S WCI  26
$$

COZ086-089-092>099-271300-
...SOUTHEAST COLORADO...

CITY           SKY/WX    TMP DP  RH WIND       PRES   REMARKS
PUEBLO         FAIR      17   9  70 NW5       30.14R WCI  10
LA JUNTA       FAIR      21  10  62 SW7       30.14S WCI  12
LAMAR          FAIR      17  12  80 SW7       30.13S WCI   8
SPRINGFIELD      N/A     24  14  65 NW10      30.12R WCI  14
$$




USA.gov is the U.S. government's official web portal to all federal, state and local government web resources and services.